AAL1083 KPHX-MMPR

Flight info

Callsign AAL1083
Flight time 1h 57m
Altitude 37000
Route STRRM1 TUS J92 VYLLA UT12 CUL UJ7 MZT J141 OBRUG OBRUG1A
Aircraft A321/M-SDE3FGHIRWY/LB1

Departure

Time 2026-04-22 17:02
Airport Phoenix Sky Harbor International Airport (KPHX)

Arrival

Time 2026-04-22 19:00
Airport Puerto Vallarta International Airport (MMPR)
Time Latitude Longitude Altitude Speed Heading
2026-04-22 16:24 33.43808 -112.00247 1124 ft 0 kts 133°
2026-04-22 16:50 33.43817 -112.00259 1124 ft 4 kts 133°
2026-04-22 16:50 33.43832 -112.00278 1118 ft 4 kts 110°
2026-04-22 16:51 33.43831 -112.00296 1114 ft 4 kts 21°
2026-04-22 16:51 33.43824 -112.00300 1117 ft 4 kts 360°
2026-04-22 16:51 33.43842 -112.00300 1121 ft 0 kts 360°
2026-04-22 16:55 33.43851 -112.00300 1124 ft 3 kts 360°
2026-04-22 16:55 33.43889 -112.00304 1124 ft 6 kts 336°
2026-04-22 16:55 33.43903 -112.00356 1121 ft 7 kts 270°
2026-04-22 16:55 33.43903 -112.00423 1124 ft 9 kts 270°
2026-04-22 16:56 33.43901 -112.00506 1124 ft 11 kts 268°
2026-04-22 16:56 33.43900 -112.00610 1124 ft 14 kts 271°
2026-04-22 16:56 33.43901 -112.00733 1124 ft 15 kts 270°
2026-04-22 16:56 33.43901 -112.00864 1124 ft 17 kts 270°
2026-04-22 16:57 33.43901 -112.01011 1124 ft 18 kts 270°
2026-04-22 16:57 33.43901 -112.01163 1124 ft 19 kts 270°
2026-04-22 16:57 33.43901 -112.01323 1124 ft 19 kts 270°
2026-04-22 16:57 33.43901 -112.01486 1124 ft 20 kts 270°
2026-04-22 16:58 33.43900 -112.01597 1124 ft 20 kts 270°
2026-04-22 16:58 33.43902 -112.01823 1124 ft 21 kts 270°
2026-04-22 16:58 33.43901 -112.02000 1124 ft 22 kts 270°
2026-04-22 16:58 33.43902 -112.02181 1124 ft 22 kts 270°
2026-04-22 16:59 33.43903 -112.02366 1124 ft 23 kts 270°
2026-04-22 16:59 33.43902 -112.02556 1124 ft 23 kts 269°
2026-04-22 16:59 33.43902 -112.02745 1124 ft 23 kts 270°
2026-04-22 16:59 33.43903 -112.02911 1124 ft 13 kts 270°
2026-04-22 17:00 33.43945 -112.02967 1114 ft 10 kts 354°
2026-04-22 17:00 33.44082 -112.02955 1124 ft 7 kts 47°
2026-04-22 17:00 33.44087 -112.02922 1124 ft 3 kts 90°
2026-04-22 17:01 33.44087 -112.02918 1124 ft 0 kts 90°
2026-04-22 17:01 33.44087 -112.02916 1124 ft 1 kts 90°
2026-04-22 17:01 33.44087 -112.02902 1124 ft 3 kts 90°
2026-04-22 17:02 33.44087 -112.02696 1124 ft 60 kts 90°
2026-04-22 17:02 33.44086 -112.01914 1124 ft 125 kts 90°
2026-04-22 17:02 33.44086 -112.00657 1131 ft 175 kts 90°
2026-04-22 17:02 33.44083 -111.99193 1770 ft 170 kts 91°
2026-04-22 17:03 33.44047 -111.97799 2468 ft 170 kts 94°
2026-04-22 17:03 33.43979 -111.96308 2828 ft 188 kts 95°
2026-04-22 17:03 33.43887 -111.94661 3051 ft 210 kts 95°
2026-04-22 17:03 33.43781 -111.92826 3280 ft 231 kts 96°
2026-04-22 17:04 33.43666 -111.90860 3825 ft 239 kts 95°
2026-04-22 17:04 33.43545 -111.88873 4554 ft 241 kts 98°
2026-04-22 17:04 33.42971 -111.86941 4918 ft 259 kts 129°
2026-04-22 17:04 33.41688 -111.85317 5437 ft 270 kts 140°
2026-04-22 17:05 33.40252 -111.83893 6134 ft 274 kts 144°
2026-04-22 17:05 33.38739 -111.82485 6850 ft 277 kts 145°
2026-04-22 17:05 33.37109 -111.81252 7538 ft 278 kts 160°
2026-04-22 17:05 33.35254 -111.80654 8247 ft 276 kts 177°
2026-04-22 17:06 33.33349 -111.80708 8976 ft 274 kts 194°
2026-04-22 17:06 33.31485 -111.81197 9732 ft 275 kts 197°
2026-04-22 17:06 33.29605 -111.81699 10315 ft 284 kts 197°
2026-04-22 17:06 33.27600 -111.82236 10461 ft 307 kts 196°
2026-04-22 17:07 33.25444 -111.82813 10646 ft 327 kts 196°
2026-04-22 17:07 33.23199 -111.83408 11157 ft 334 kts 196°
2026-04-22 17:07 33.20914 -111.84008 11771 ft 338 kts 196°
2026-04-22 17:07 33.18605 -111.84614 12401 ft 342 kts 196°
2026-04-22 17:08 33.16284 -111.85281 13008 ft 344 kts 201°
2026-04-22 17:08 33.14102 -111.86423 13613 ft 343 kts 213°
2026-04-22 17:08 33.12054 -111.87898 14199 ft 346 kts 214°
2026-04-22 17:08 33.09984 -111.89390 14776 ft 349 kts 214°
2026-04-22 17:09 33.07900 -111.90885 15361 ft 351 kts 214°
2026-04-22 17:09 33.05787 -111.92391 15939 ft 354 kts 214°
2026-04-22 17:09 33.04386 -111.93386 16361 ft 356 kts 214°
2026-04-22 17:09 33.01278 -111.94901 17108 ft 368 kts 197°
2026-04-22 17:10 32.98696 -111.95196 17640 ft 379 kts 182°
2026-04-22 17:10 32.96059 -111.94667 18172 ft 391 kts 167°
2026-04-22 17:10 32.93510 -111.93435 18664 ft 398 kts 161°
2026-04-22 17:10 32.90963 -111.92095 19146 ft 403 kts 159°
2026-04-22 17:11 32.88541 -111.90362 19624 ft 412 kts 148°
2026-04-22 17:11 32.86385 -111.88065 20099 ft 421 kts 137°
2026-04-22 17:11 32.84387 -111.85506 20584 ft 424 kts 137°
2026-04-22 17:11 32.82370 -111.82933 21066 ft 427 kts 137°
2026-04-22 17:12 32.80334 -111.80345 21546 ft 430 kts 137°
2026-04-22 17:12 32.78281 -111.77742 22015 ft 433 kts 137°
2026-04-22 17:12 32.76216 -111.75126 22454 ft 436 kts 137°
2026-04-22 17:12 32.74136 -111.72490 22902 ft 438 kts 137°
2026-04-22 17:13 32.72042 -111.69837 23334 ft 441 kts 137°
2026-04-22 17:13 32.69937 -111.67170 23733 ft 444 kts 137°
2026-04-22 17:13 32.67820 -111.64487 24082 ft 447 kts 137°
2026-04-22 17:13 32.65690 -111.61790 24436 ft 449 kts 137°
2026-04-22 17:14 32.63546 -111.59077 24782 ft 451 kts 137°
2026-04-22 17:14 32.61391 -111.56357 25137 ft 454 kts 137°
2026-04-22 17:14 32.59224 -111.53624 25545 ft 456 kts 137°
2026-04-22 17:14 32.57046 -111.50881 25891 ft 458 kts 137°
2026-04-22 17:15 32.56305 -111.49949 26013 ft 459 kts 137°
2026-04-22 17:15 32.52654 -111.45356 26618 ft 462 kts 137°
2026-04-22 17:15 32.50446 -111.42574 26981 ft 465 kts 137°
2026-04-22 17:15 32.48226 -111.39780 27325 ft 467 kts 137°
2026-04-22 17:16 32.46748 -111.37922 27541 ft 468 kts 137°
2026-04-22 17:16 32.44508 -111.35115 27862 ft 470 kts 137°
2026-04-22 17:16 32.42255 -111.32295 28191 ft 473 kts 137°
2026-04-22 17:16 32.39255 -111.28542 28587 ft 475 kts 137°
2026-04-22 17:17 32.36978 -111.25695 28894 ft 478 kts 137°
2026-04-22 17:17 32.34689 -111.22837 29174 ft 480 kts 137°
2026-04-22 17:17 32.33138 -111.20898 29352 ft 481 kts 137°
2026-04-22 17:17 32.30835 -111.18020 29671 ft 483 kts 137°
2026-04-22 17:18 32.28522 -111.15125 29986 ft 485 kts 137°
2026-04-22 17:18 32.26228 -111.12258 30279 ft 488 kts 137°
2026-04-22 17:18 32.23854 -111.09298 30512 ft 491 kts 137°
2026-04-22 17:18 32.21528 -111.06403 30778 ft 493 kts 137°
2026-04-22 17:19 32.16811 -111.00533 31456 ft 493 kts 138°
2026-04-22 17:19 32.11652 -110.95323 31970 ft 484 kts 155°
2026-04-22 17:20 32.05519 -110.92432 32540 ft 469 kts 175°
2026-04-22 17:20 31.99148 -110.91969 33131 ft 454 kts 190°
2026-04-22 17:21 31.95993 -110.92123 33437 ft 454 kts 190°
2026-04-22 17:21 31.89676 -110.92410 34046 ft 454 kts 191°
2026-04-22 17:22 31.83350 -110.92694 34492 ft 456 kts 191°
2026-04-22 17:22 31.80183 -110.92838 34722 ft 456 kts 191°
2026-04-22 17:22 31.73829 -110.93136 35196 ft 457 kts 191°
2026-04-22 17:23 31.70647 -110.93285 35387 ft 459 kts 191°
2026-04-22 17:23 31.64264 -110.93577 35925 ft 459 kts 192°
2026-04-22 17:23 31.61074 -110.93722 36283 ft 459 kts 192°
2026-04-22 17:24 31.57880 -110.93868 36530 ft 459 kts 192°
2026-04-22 17:24 31.54685 -110.94015 36771 ft 460 kts 192°
2026-04-22 17:24 31.51484 -110.94164 37007 ft 460 kts 192°
2026-04-22 17:24 31.48283 -110.94311 37159 ft 461 kts 192°
2026-04-22 17:25 31.41900 -110.94594 37192 ft 457 kts 192°
2026-04-22 17:25 31.35507 -110.94632 37187 ft 470 kts 183°
2026-04-22 17:26 31.32257 -110.93878 37170 ft 484 kts 172°
2026-04-22 17:26 31.29089 -110.92400 37158 ft 498 kts 160°
2026-04-22 17:26 31.22953 -110.88575 37127 ft 500 kts 159°
2026-04-22 17:27 31.16800 -110.84764 37095 ft 501 kts 160°
2026-04-22 17:27 31.10635 -110.80967 37034 ft 501 kts 160°
2026-04-22 17:28 31.04461 -110.77174 37021 ft 502 kts 160°
2026-04-22 17:28 30.98283 -110.73387 37031 ft 502 kts 160°
2026-04-22 17:29 30.92109 -110.69609 37026 ft 501 kts 160°
2026-04-22 17:29 30.85932 -110.65832 37008 ft 502 kts 160°
2026-04-22 17:30 30.79731 -110.62042 37033 ft 504 kts 160°
2026-04-22 17:30 30.73524 -110.58243 37052 ft 505 kts 160°
2026-04-22 17:31 30.67307 -110.54452 37047 ft 505 kts 160°
2026-04-22 17:31 30.61084 -110.50665 37039 ft 505 kts 160°
2026-04-22 17:32 30.54897 -110.46912 37062 ft 505 kts 160°
2026-04-22 17:32 30.48630 -110.43114 37059 ft 505 kts 160°
2026-04-22 17:33 30.42449 -110.39362 37028 ft 505 kts 159°
2026-04-22 17:33 30.36226 -110.35599 37029 ft 506 kts 160°
2026-04-22 17:34 30.29988 -110.31830 37057 ft 505 kts 160°
2026-04-22 17:34 30.23763 -110.28068 37064 ft 504 kts 160°
2026-04-22 17:35 30.17532 -110.24316 37026 ft 505 kts 160°
2026-04-22 17:35 30.11304 -110.20569 37056 ft 504 kts 160°
2026-04-22 17:36 30.05085 -110.16839 37061 ft 504 kts 160°
2026-04-22 17:36 29.98869 -110.13112 37078 ft 504 kts 160°
2026-04-22 17:37 29.92653 -110.09377 37034 ft 504 kts 160°
2026-04-22 17:37 29.86435 -110.05660 37042 ft 503 kts 160°
2026-04-22 17:38 29.80212 -110.01956 37056 ft 503 kts 160°
2026-04-22 17:38 29.74000 -109.98256 37061 ft 503 kts 160°
2026-04-22 17:39 29.67785 -109.94543 37039 ft 503 kts 160°
2026-04-22 17:40 29.58466 -109.88998 37043 ft 503 kts 160°
2026-04-22 17:40 29.52246 -109.85309 37059 ft 503 kts 160°
2026-04-22 17:41 29.46021 -109.81631 37068 ft 504 kts 160°
2026-04-22 17:41 29.39786 -109.77956 37048 ft 503 kts 160°
2026-04-22 17:42 29.33555 -109.74274 37053 ft 504 kts 160°
2026-04-22 17:42 29.27313 -109.70585 37058 ft 505 kts 160°
2026-04-22 17:43 29.21068 -109.66911 37067 ft 505 kts 160°
2026-04-22 17:43 29.14830 -109.63242 37068 ft 504 kts 160°
2026-04-22 17:44 29.08587 -109.59573 37070 ft 504 kts 160°
2026-04-22 17:44 29.02354 -109.55914 37052 ft 503 kts 160°
2026-04-22 17:45 28.96117 -109.52261 37065 ft 504 kts 160°
2026-04-22 17:45 28.89875 -109.48609 37040 ft 504 kts 160°
2026-04-22 17:46 28.83664 -109.44982 37064 ft 505 kts 160°
2026-04-22 17:46 28.77402 -109.41332 37071 ft 506 kts 160°
2026-04-22 17:47 28.71142 -109.37683 37085 ft 505 kts 160°
2026-04-22 17:47 28.64881 -109.34038 37064 ft 505 kts 160°
2026-04-22 17:48 28.59631 -109.30993 37081 ft 506 kts 160°
2026-04-22 17:48 28.52347 -109.26767 37084 ft 505 kts 160°
2026-04-22 17:49 28.46082 -109.23136 37109 ft 505 kts 160°
2026-04-22 17:49 28.39816 -109.19507 37086 ft 505 kts 160°
2026-04-22 17:50 28.33560 -109.15882 37097 ft 504 kts 160°
2026-04-22 17:50 28.27305 -109.12272 37094 ft 504 kts 160°
2026-04-22 17:51 28.21051 -109.08672 37126 ft 505 kts 160°
2026-04-22 17:51 28.14787 -109.05067 37085 ft 504 kts 160°
2026-04-22 17:52 28.08525 -109.01476 37095 ft 504 kts 159°
2026-04-22 17:52 28.02265 -108.97883 37107 ft 505 kts 160°
2026-04-22 17:53 27.95995 -108.94286 37098 ft 505 kts 160°
2026-04-22 17:53 27.89735 -108.90704 37048 ft 505 kts 160°
2026-04-22 17:54 27.83454 -108.87107 37066 ft 507 kts 159°
2026-04-22 17:54 27.77151 -108.83507 37109 ft 508 kts 160°
2026-04-22 17:55 27.71916 -108.80527 37116 ft 507 kts 160°
2026-04-22 17:55 27.64608 -108.76365 37091 ft 506 kts 160°
2026-04-22 17:56 27.58330 -108.72790 37094 ft 505 kts 160°
2026-04-22 17:56 27.52060 -108.69223 37101 ft 505 kts 160°
2026-04-22 17:57 27.45793 -108.65663 37110 ft 505 kts 160°
2026-04-22 17:57 27.39514 -108.62107 37107 ft 505 kts 160°
2026-04-22 17:58 27.33252 -108.58559 37086 ft 504 kts 160°
2026-04-22 17:58 27.26991 -108.55009 37112 ft 504 kts 159°
2026-04-22 17:59 27.20790 -108.51502 37086 ft 498 kts 160°
2026-04-22 17:59 27.14560 -108.48006 37090 ft 502 kts 160°
2026-04-22 18:00 27.09371 -108.45095 37085 ft 502 kts 160°
2026-04-22 18:00 27.02072 -108.40988 37080 ft 503 kts 159°
2026-04-22 18:01 26.95814 -108.37479 37078 ft 504 kts 159°
2026-04-22 18:01 26.89541 -108.33965 37083 ft 504 kts 160°
2026-04-22 18:02 26.83257 -108.30440 37065 ft 505 kts 159°
2026-04-22 18:02 26.76987 -108.26920 37078 ft 504 kts 159°
2026-04-22 18:03 26.70718 -108.23403 37067 ft 504 kts 159°
2026-04-22 18:03 26.65503 -108.20490 37086 ft 504 kts 159°
2026-04-22 18:04 26.59223 -108.17023 37080 ft 501 kts 163°
2026-04-22 18:04 26.51658 -108.14022 37093 ft 496 kts 168°
2026-04-22 18:05 26.46189 -108.11930 37095 ft 496 kts 168°
2026-04-22 18:05 26.39673 -108.09422 37077 ft 495 kts 168°
2026-04-22 18:06 26.33197 -108.06927 37086 ft 496 kts 168°
2026-04-22 18:06 26.26672 -108.04425 37067 ft 495 kts 167°
2026-04-22 18:07 26.20158 -108.01938 37087 ft 495 kts 168°
2026-04-22 18:07 26.13652 -107.99461 37075 ft 493 kts 167°
2026-04-22 18:08 26.07147 -107.96989 37068 ft 494 kts 167°
2026-04-22 18:08 26.00640 -107.94500 37053 ft 494 kts 167°
2026-04-22 18:09 25.94148 -107.92021 37035 ft 492 kts 168°
2026-04-22 18:09 25.87661 -107.89558 37055 ft 494 kts 167°
2026-04-22 18:10 25.81158 -107.87094 37067 ft 494 kts 167°
2026-04-22 18:10 25.74662 -107.84628 37059 ft 493 kts 167°
2026-04-22 18:11 25.68160 -107.82169 37062 ft 493 kts 167°
2026-04-22 18:11 25.61665 -107.79720 37064 ft 493 kts 167°
2026-04-22 18:12 25.55171 -107.77268 37061 ft 493 kts 167°
2026-04-22 18:12 25.48680 -107.74818 37059 ft 493 kts 167°
2026-04-22 18:13 25.42191 -107.72363 37057 ft 493 kts 167°
2026-04-22 18:13 25.35701 -107.69925 37058 ft 492 kts 167°
2026-04-22 18:14 25.29218 -107.67490 37053 ft 492 kts 167°
2026-04-22 18:14 25.22726 -107.65051 37055 ft 493 kts 167°
2026-04-22 18:15 25.16239 -107.62617 37029 ft 492 kts 167°
2026-04-22 18:15 25.09791 -107.60206 37046 ft 492 kts 167°
2026-04-22 18:16 25.03306 -107.57781 37060 ft 492 kts 167°
2026-04-22 18:16 24.96789 -107.55327 37073 ft 492 kts 167°
2026-04-22 18:17 24.90309 -107.52894 37088 ft 492 kts 167°
2026-04-22 18:17 24.83880 -107.50493 37087 ft 491 kts 166°
2026-04-22 18:18 24.77391 -107.47951 37091 ft 495 kts 159°
2026-04-22 18:18 24.71493 -107.43945 37085 ft 501 kts 148°
2026-04-22 18:19 24.65816 -107.39599 37096 ft 501 kts 149°
2026-04-22 18:19 24.60046 -107.35215 37046 ft 501 kts 148°
2026-04-22 18:20 24.54312 -107.30855 37056 ft 501 kts 148°
2026-04-22 18:20 24.48625 -107.26521 37067 ft 501 kts 148°
2026-04-22 18:21 24.42896 -107.22164 37064 ft 501 kts 148°
2026-04-22 18:21 24.37170 -107.17816 37064 ft 501 kts 148°
2026-04-22 18:22 24.31438 -107.13473 37061 ft 500 kts 148°
2026-04-22 18:22 24.25710 -107.09150 37075 ft 499 kts 148°
2026-04-22 18:23 24.19990 -107.04834 37075 ft 499 kts 148°
2026-04-22 18:23 24.14275 -107.00528 37065 ft 499 kts 148°
2026-04-22 18:24 24.05939 -106.94253 37073 ft 499 kts 148°
2026-04-22 18:25 23.97373 -106.87795 37068 ft 498 kts 148°
2026-04-22 18:25 23.91670 -106.83496 37070 ft 498 kts 148°
2026-04-22 18:26 23.83157 -106.77101 37070 ft 497 kts 148°
2026-04-22 18:26 23.77447 -106.72837 37065 ft 497 kts 148°
2026-04-22 18:27 23.71743 -106.68572 37070 ft 497 kts 148°
2026-04-22 18:27 23.66041 -106.64302 37052 ft 497 kts 148°
2026-04-22 18:28 23.60333 -106.60029 37053 ft 498 kts 148°
2026-04-22 18:28 23.54623 -106.55754 37057 ft 498 kts 148°
2026-04-22 18:29 23.48904 -106.51493 37038 ft 498 kts 148°
2026-04-22 18:29 23.43186 -106.47247 37063 ft 497 kts 148°
2026-04-22 18:30 23.34623 -106.40874 37068 ft 497 kts 148°
2026-04-22 18:31 23.28923 -106.36631 37070 ft 497 kts 148°
2026-04-22 18:31 23.23216 -106.32393 37072 ft 497 kts 148°
2026-04-22 18:32 23.17741 -106.28358 37095 ft 496 kts 150°
2026-04-22 18:32 23.11557 -106.25176 37100 ft 491 kts 162°
2026-04-22 18:33 23.05196 -106.22477 37098 ft 491 kts 162°
2026-04-22 18:33 22.98837 -106.19771 37090 ft 491 kts 162°
2026-04-22 18:34 22.92476 -106.17074 37082 ft 491 kts 162°
2026-04-22 18:34 22.86117 -106.14374 37070 ft 491 kts 162°
2026-04-22 18:35 22.79756 -106.11679 37072 ft 490 kts 162°
2026-04-22 18:35 22.73404 -106.08993 37068 ft 490 kts 162°
2026-04-22 18:36 22.67058 -106.06306 37058 ft 489 kts 162°
2026-04-22 18:36 22.60717 -106.03630 37045 ft 489 kts 161°
2026-04-22 18:37 22.54368 -106.00954 36502 ft 493 kts 161°
2026-04-22 18:37 22.51152 -105.99596 35831 ft 496 kts 161°
2026-04-22 18:37 22.49023 -105.98697 35378 ft 498 kts 161°
2026-04-22 18:37 22.44685 -105.96869 34343 ft 504 kts 161°
2026-04-22 18:38 22.41390 -105.95483 33421 ft 511 kts 161°
2026-04-22 18:38 22.38091 -105.94096 32979 ft 505 kts 161°
2026-04-22 18:38 22.34819 -105.92720 32384 ft 504 kts 161°
2026-04-22 18:39 22.28311 -105.89983 31235 ft 500 kts 161°
2026-04-22 18:39 22.25077 -105.88625 30655 ft 498 kts 161°
2026-04-22 18:39 22.21865 -105.87277 30187 ft 493 kts 161°
2026-04-22 18:39 22.18671 -105.85939 29599 ft 490 kts 161°
2026-04-22 18:40 22.15523 -105.84620 29151 ft 482 kts 161°
2026-04-22 18:40 22.12405 -105.83313 28562 ft 479 kts 161°
2026-04-22 18:40 22.09560 -105.82121 28066 ft 475 kts 161°
2026-04-22 18:40 22.06492 -105.80841 27546 ft 470 kts 161°
2026-04-22 18:41 22.03461 -105.79572 27030 ft 465 kts 161°
2026-04-22 18:41 22.00465 -105.78313 26573 ft 459 kts 161°
2026-04-22 18:41 21.97502 -105.77067 26107 ft 454 kts 161°
2026-04-22 18:41 21.94559 -105.75835 25571 ft 451 kts 161°
2026-04-22 18:42 21.91649 -105.74619 25091 ft 447 kts 161°
2026-04-22 18:42 21.88768 -105.73416 24660 ft 442 kts 161°
2026-04-22 18:42 21.85916 -105.72223 24237 ft 437 kts 161°
2026-04-22 18:42 21.83097 -105.71047 23809 ft 433 kts 161°
2026-04-22 18:43 21.80291 -105.69882 23321 ft 430 kts 161°
2026-04-22 18:43 21.77579 -105.68554 22875 ft 427 kts 152°
2026-04-22 18:43 21.75034 -105.66902 22320 ft 426 kts 150°
2026-04-22 18:43 21.72517 -105.65245 21900 ft 422 kts 150°
2026-04-22 18:44 21.70015 -105.63590 21360 ft 421 kts 150°
2026-04-22 18:44 21.67544 -105.61947 21001 ft 415 kts 150°
2026-04-22 18:44 21.65092 -105.60325 20530 ft 412 kts 150°
2026-04-22 18:44 21.62656 -105.58720 20083 ft 409 kts 150°
2026-04-22 18:45 21.60241 -105.57134 19643 ft 405 kts 150°
2026-04-22 18:45 21.57847 -105.55557 19212 ft 402 kts 150°
2026-04-22 18:45 21.55472 -105.53995 18785 ft 398 kts 151°
2026-04-22 18:45 21.53120 -105.52447 18338 ft 395 kts 151°
2026-04-22 18:46 21.50788 -105.50918 17839 ft 391 kts 151°
2026-04-22 18:46 21.48475 -105.49398 17325 ft 386 kts 150°
2026-04-22 18:46 21.46201 -105.47905 16554 ft 381 kts 150°
2026-04-22 18:46 21.43950 -105.46427 15828 ft 376 kts 150°
2026-04-22 18:47 21.41742 -105.44977 15304 ft 369 kts 150°
2026-04-22 18:47 21.39565 -105.43548 14859 ft 365 kts 150°
2026-04-22 18:47 21.37410 -105.42135 14418 ft 362 kts 149°
2026-04-22 18:47 21.35273 -105.40733 13967 ft 359 kts 149°
2026-04-22 18:48 21.33151 -105.39343 13503 ft 356 kts 149°
2026-04-22 18:48 21.31052 -105.37970 13059 ft 352 kts 149°
2026-04-22 18:48 21.28972 -105.36610 12591 ft 349 kts 149°
2026-04-22 18:48 21.26905 -105.35257 12120 ft 347 kts 149°
2026-04-22 18:49 21.25541 -105.34362 11801 ft 346 kts 149°
2026-04-22 18:49 21.23490 -105.33016 11320 ft 345 kts 149°
2026-04-22 18:49 21.21448 -105.31678 10839 ft 344 kts 149°
2026-04-22 18:49 21.19410 -105.30345 10364 ft 343 kts 149°
2026-04-22 18:50 21.17392 -105.29026 10095 ft 334 kts 149°
2026-04-22 18:50 21.15441 -105.27753 9973 ft 322 kts 149°
2026-04-22 18:50 21.13567 -105.26528 9750 ft 310 kts 149°
2026-04-22 18:50 21.11734 -105.25331 9268 ft 307 kts 149°
2026-04-22 18:51 21.09919 -105.24148 8865 ft 304 kts 149°
2026-04-22 18:51 21.08131 -105.22981 8467 ft 299 kts 149°
2026-04-22 18:51 21.06365 -105.21827 8078 ft 295 kts 149°
2026-04-22 18:51 21.04622 -105.20688 7699 ft 292 kts 149°
2026-04-22 18:52 21.02899 -105.19564 7318 ft 288 kts 149°
2026-04-22 18:52 21.01191 -105.18451 6945 ft 287 kts 149°
2026-04-22 18:52 20.99483 -105.17338 6563 ft 288 kts 149°
2026-04-22 18:52 20.97768 -105.16220 6207 ft 287 kts 149°
2026-04-22 18:53 20.96068 -105.15112 5929 ft 283 kts 149°
2026-04-22 18:53 20.94416 -105.14034 5806 ft 273 kts 149°
2026-04-22 18:53 20.92823 -105.12995 5687 ft 264 kts 149°
2026-04-22 18:53 20.91348 -105.11892 5540 ft 256 kts 141°
2026-04-22 18:54 20.89988 -105.10696 5292 ft 252 kts 141°
2026-04-22 18:54 20.88632 -105.09507 4942 ft 252 kts 141°
2026-04-22 18:54 20.87279 -105.08319 4625 ft 252 kts 142°
2026-04-22 18:54 20.85749 -105.07459 4278 ft 249 kts 171°
2026-04-22 18:55 20.84065 -105.07557 4003 ft 242 kts 202°
2026-04-22 18:55 20.82693 -105.08537 3721 ft 237 kts 228°
2026-04-22 18:55 20.81568 -105.09828 3406 ft 235 kts 227°
2026-04-22 18:55 20.80477 -105.11088 3095 ft 228 kts 227°
2026-04-22 18:56 20.79415 -105.12313 2830 ft 220 kts 227°
2026-04-22 18:56 20.78394 -105.13487 2574 ft 211 kts 227°
2026-04-22 18:56 20.77400 -105.14630 2336 ft 210 kts 228°
2026-04-22 18:56 20.76423 -105.15753 2119 ft 200 kts 229°
2026-04-22 18:57 20.75519 -105.16791 1913 ft 183 kts 230°
2026-04-22 18:57 20.74687 -105.17746 1698 ft 169 kts 231°
2026-04-22 18:57 20.73909 -105.18636 1494 ft 162 kts 230°
2026-04-22 18:57 20.73174 -105.19476 1302 ft 150 kts 229°
2026-04-22 18:58 20.72474 -105.20273 1062 ft 146 kts 231°
2026-04-22 18:58 20.71788 -105.21063 887 ft 146 kts 229°
2026-04-22 18:58 20.71103 -105.21858 719 ft 143 kts 230°
2026-04-22 18:58 20.70445 -105.22624 542 ft 140 kts 229°
2026-04-22 18:59 20.69789 -105.23375 334 ft 140 kts 225°
2026-04-22 18:59 20.69130 -105.24121 150 ft 140 kts 227°
2026-04-22 18:59 20.68491 -105.24861 42 ft 124 kts 227°
2026-04-22 18:59 20.67995 -105.25430 30 ft 81 kts 227°
2026-04-22 19:00 20.67729 -105.25741 29 ft 35 kts 227°
2026-04-22 19:00 20.67575 -105.25894 28 ft 23 kts 212°
2026-04-22 19:00 20.67441 -105.25953 29 ft 13 kts 198°
2026-04-22 19:00 20.67358 -105.25954 29 ft 12 kts 136°
2026-04-22 19:01 20.67382 -105.25878 29 ft 12 kts 44°
2026-04-22 19:01 20.67447 -105.25806 29 ft 14 kts 47°
2026-04-22 19:01 20.67517 -105.25724 29 ft 16 kts 49°
2026-04-22 19:01 20.67594 -105.25634 29 ft 17 kts 46°
2026-04-22 19:02 20.67679 -105.25538 29 ft 19 kts 47°
2026-04-22 19:02 20.67769 -105.25434 29 ft 20 kts 47°
2026-04-22 19:02 20.67865 -105.25322 29 ft 21 kts 47°
2026-04-22 19:02 20.67958 -105.25219 29 ft 19 kts 47°
2026-04-22 19:03 20.68045 -105.25118 29 ft 16 kts 47°
2026-04-22 19:03 20.68087 -105.25049 29 ft 10 kts 88°
2026-04-22 19:03 20.68044 -105.24991 29 ft 11 kts 137°
2026-04-22 19:03 20.67992 -105.24940 29 ft 9 kts 137°
2026-04-22 19:04 20.67991 -105.24887 29 ft 9 kts 54°
2026-04-22 19:04 20.67986 -105.24826 29 ft 10 kts 129°
2026-04-22 19:04 20.67933 -105.24771 29 ft 11 kts 136°
2026-04-22 19:04 20.67892 -105.24720 29 ft 7 kts 105°
2026-04-22 19:05 20.67912 -105.24681 29 ft 4 kts 45°
2026-04-22 19:05 20.67920 -105.24672 29 ft 0 kts 47°